{"data":{"norad_id":47375,"epoch":"2026-09-19T23:01:17.377824Z","epoch_age_seconds":68606,"freshness":"FRESH","line1":"1 47375U 21005AC  26262.95922891  .00000077  00000+0  14244-4 0  9999","line2":"2 47375  53.1593 238.4276 0001173  88.5261 271.5875 15.31704685312795","mean_motion":15.31704685,"eccentricity":0.0001173,"inclination_deg":53.1593,"raan_deg":238.4276,"arg_perigee_deg":88.5261,"mean_anomaly_deg":271.5875,"bstar":1.4244e-5,"rev_number":31279,"period_min":94.012900404493,"perigee_km":469.92265788667,"apogee_km":471.5294011534,"semimajor_km":6848.86302952,"source":"CELESTRAK","updated_at":"2026-09-20T09:00:38.591748Z"}}